RH
3 3 3 3 3 3 3 3 4 4 4 4 5 5 6 7 8 8 9 10 12 12 13 15 15 17 18 16 17 19 19 22 25 25 26 32 41 49 56 58 50 40 32 27 24 23 26 31 37 43 48 49 50 51 53 54 55 57 57 55 52 50 50 50 50 49 48 46 44 43 42 42 42 43
3 3 3 3 3 3 3 3 3 3 3 3 4 4 5 6 7 7 7 8 9 11 12 13 14 14 16 16 16 18 18 19 21 21 20 23 30 38 48 58 62 57 47 39 34 29 24 22 25 31 39 45 49 50 51 51 52 54 55 56 54 52 52 54 55 56 57 56 53 51 49 47 45 43
3 3 3 3 3 3 3 3 3 3 3 3 3 3 4 4 5 6 6 7 7 9 10 12 13 13 14 16 15 16 17 18 20 19 17 17 22 28 34 43 55 62 60 52 45 40 34 27 23 22 26 32 39 45 48 50 51 52 52 52 52 52 53 54 56 57 60 62 61 60 59 57 55 53
3 3 3 3 3 3 3 3 3 3 3 3 3 3 3 4 4 5 5 5 6 7 8 9 11 11 12 15 15 15 16 16 18 19 17 14 15 19 24 29 37 49 58 61 57 52 46 39 34 28 24 24 25 30 37 42 47 51 53 52 51 50 50 51 53 54 57 60 62 64 64 64 64 63
3 3 3 3 3 3 3 3 3 3 3 3 3 3 3 3 3 4 4 5 5 6 7 7 8 9 10 12 14 14 14 15 16 16 16 15 13 13 16 20 25 33 42 52 58 58 55 50 46 41 35 30 25 23 24 28 34 41 46 50 52 52 52 52 53 54 55 57 59 61 64 65 67 67
2 3 3 3 3 3 3 3 3 3 3 3 3 2 3 3 3 3 3 4 5 5 6 6 7 8 8 9 11 12 13 15 16 16 15 15 14 12 13 14 18 22 28 36 45 51 54 53 52 51 47 43 38 32 27 24 24 27 32 38 43 47 51 54 56 56 56 57 58 60 62 64 67 68
2 2 3 3 3 3 3 3 3 3 3 3 3 3 3 3 2 3 3 3 4 4 5 6 6 7 8 8 9 11 12 13 15 16 16 15 14 13 12 12 13 16 19 24 31 37 42 45 48 52 54 54 51 47 41 35 30 27 25 26 29 34 39 44 49 53 55 57 58 60 62 65 67 68
2 2 2 2 3 3 3 3 3 3 3 3 3 3 3 3 3 3 3 2 3 3 4 5 6 6 7 7 8 9 10 12 13 15 16 17 16 13 12 12 12 13 14 17 21 26 31 34 37 42 49 55 58 58 55 50 45 40 35 30 27 26 28 31 35 40 45 50 53 56 59 62 65 66
3 3 2 2 2 2 2 3 3 3 3 3 3 3 3 3 3 3 3 2 3 3 3 4 4 5 5 6 7 7 9 10 11 12 14 16 16 15 13 13 12 13 13 14 15 18 21 25 28 32 37 43 51 57 60 60 57 53 49 45 40 35 32 29 29 30 33 37 41 46 50 53 57 60
3 3 3 2 2 2 2 2 2 3 3 3 3 3 3 3 3 3 3 3 3 2 3 3 3 4 5 5 6 6 7 8 9 10 11 13 15 15 14 14 13 13 13 13 14 15 16 18 20 24 28 32 37 44 51 59 62 62 60 57 54 50 46 42 37 34 31 30 32 34 38 41 45 49
3 3 3 3 2 2 2 2 2 2 3 3 3 3 3 3 3 3 3 3 3 3 3 3 3 3 4 4 5 5 6 7 8 9 10 11 13 15 15 15 14 14 14 13 13 14 15 15 16 18 20 24 27 31 36 45 54 63 66 66 63 60 58 55 51 47 43 38 35 33 33 33 34 37
3 3 3 2 3 3 2 2 2 2 2 2 3 3 3 3 3 3 3 3 3 3 3 3 3 3 3 3 4 4 4 5 6 7 8 9 10 13 14 15 15 15 14 14 13 13 14 15 15 15 16 18 20 23 26 31 39 49 58 65 67 67 65 63 61 59 57 53 50 46 43 39 35 34
2 3 3 2 3 2 2 3 2 2 2 2 2 3 2 3 3 3 3 3 3 3 3 3 3 3 3 3 3 3 4 4 5 6 7 8 9 10 13 14 14 15 15 14 14 14 14 15 15 15 16 16 17 17 19 23 27 34 42 49 57 62 65 66 67 67 67 65 63 61 58 55 49 45
3 3 3 3 3 3 3 3 2 2 2 2 2 2 2 2 3 3 3 3 3 3 3 3 3 3 3 3 3 3 3 4 4 5 6 7 8 9 11 12 13 14 15 16 16 15 15 15 16 16 16 16 17 17 17 18 20 24 29 34 41 47 52 57 62 66 69 71 71 69 68 67 65 62
2 3 3 3 3 3 3 3 3 3 2 3 2 2 2 2 2 3 3 3 3 3 3 3 3 3 3 3 3 3 3 4 4 4 5 6 7 7 9 10 12 14 15 16 16 16 15 15 16 17 17 16 16 17 17 17 18 18 20 23 27 32 37 42 47 53 59 64 68 71 71 71 70 70
2 2 2 2 3 3 3 3 3 3 3 3 3 2 2 2 2 2 2 3 3 3 3 3 3 4 4 4 4 4 4 4 4 4 4 5 6 6 7 8 10 12 13 14 15 16 15 15 16 17 17 17 17 16 16 17 17 18 18 18 18 20 24 28 32 38 44 49 54 59 64 68 70 70
2 2 2 2 2 2 3 3 3 3 3 3 3 3 3 2 2 2 2 2 3 3 3 3 3 3 4 4 4 4 4 4 4 4 4 4 5 5 6 7 8 9 11 12 14 14 14 14 15 15 16 17 17 16 16 16 16 17 18 18 17 17 17 18 21 25 30 35 40 44 49 54 59 63
2 2 2 2 2 2 2 2 3 3 3 3 3 3 3 3 3 3 2 2 3 3 3 3 3 4 3 4 4 4 4 4 3 3 3 4 4 4 5 5 6 8 9 10 11 13 13 13 13 14 14 15 16 16 15 16 16 17 17 17 17 17 16 16 16 17 19 22 26 32 36 40 45 49
2 2 2 2 2 2 2 2 2 3 3 3 3 3 3 3 3 3 3 2 3 3 3 3 4 4 4 4 4 4 4 4 3 3 3 3 4 4 4 4 5 6 7 8 9 10 11 11 12 12 12 13 13 14 13 14 14 16 17 17 16 16 16 16 16 15 16 16 17 20 24 27 31 36
2 2 2 2 2 2 2 2 2 2 2 2 3 3 3 3 3 3 3 3 3 3 3 3 3 4 4 4 4 4 4 4 3 3 4 4 4 4 4 4 5 5 6 7 8 8 9 10 10 11 11 11 12 12 12 13 13 14 15 17 17 16 16 16 16 15 15 16 16 17 18 19 21 24
2 2 2 2 2 2 2 2 2 2 2 2 2 2 3 3 3 3 3 3 3 3 3 3 3 4 4 3 4 4 4 4 4 4 4 4 4 4 4 4 4 4 5 5 6 7 8 8 9 10 10 11 11 12 12 12 13 13 14 16 17 17 17 17 17 17 16 16 17 17 18 19 19 19
3 3 3 2 2 2 2 2 2 2 2 2 2 2 2 2 3 3 3 3 3 3 3 3 3 4 3 3 4 4 4 4 4 4 4 4 4 4 4 4 4 4 4 4 5 6 6 7 8 9 9 10 10 10 11 11 11 12 13 14 15 16 17 17 18 18 18 18 18 18 18 19 19 19
3 3 3 3 3 2 3 2 2 2 2 2 2 2 2 2 2 3 3 3 3 3 3 3 4 4 4 4 4 4 4 4 4 4 4 4 5 5 5 5 5 4 5 4 4 5 5 6 6 7 8 9 9 9 9 9 10 10 11 12 13 14 16 17 18 18 19 19 19 18 19 19 19 19
4 4 4 3 3 3 3 3 2 2 2 2 2 2 2 2 2 3 2 3 3 3 3 3 3 4 4 4 4 4 4 4 4 4 4 4 5 5 5 5 5 5 5 5 4 5 5 5 5 6 6 7 8 8 8 8 8 8 9 10 11 11 12 13 14 16 17 18 19 19 19 19 19 19
5 5 4 4 4 3 3 3 3 3 3 3 2 2 2 2 2 3 3 2 3 3 3 3 3 3 4 3 4 4 4 4 4 4 4 5 5 5 5 5 5 5 5 4 4 4 4 5 5 5 6 6 6 6 7 7 7 8 8 9 9 10 10 10 11 12 13 14 16 17 18 18 19 19
5 5 5 5 4 4 4 3 3 3 3 3 3 2 3 3 3 3 3 3 3 3 3 3 3 3 3 3 3 4 4 4 4 4 4 4 5 5 5 5 5 5 5 5 4 4 4 5 5 5 5 5 5 6 6 7 7 7 7 8 8 9 9 10 10 10 12 13 13 15 16 16 16 17
5 5 5 5 5 4 4 4 4 4 3 3 3 3 3 3 3 3 3 3 3 3 3 3 3 3 3 3 3 3 3 3 4 4 4 4 5 5 5 5 5 5 5 5 5 4 4 5 5 5 5 4 5 5 5 6 6 6 6 6 7 8 8 9 9 9 10 10 11 12 13 14 14 14
6 6 6 5 5 5 5 4 4 4 4 4 4 3 3 3 3 3 3 3 3 3 3 3 3 3 3 3 3 3 3 3 4 4 4 4 5 5 5 5 5 5 5 5 5 4 5 5 5 5 5 5 5 5 5 5 5 5 5 5 5 6 6 6 7 7 7 8 8 8 9 10 11 11
6 6 6 6 6 5 5 5 5 4 4 4 4 4 4 4 3 3 3 3 3 3 3 3 3 3 3 3 3 3 3 3 3 4 4 4 4 5 5 5 5 5 5 5 4 5 5 5 6 6 6 5 5 5 5 5 5 5 5 5 5 5 5 5 5 6 5 6 6 6 6 7 7 8
5 5 5 5 5 5 5 5 5 5 5 4 4 4 4 5 4 4 4 3 3 3 3 3 3 3 3 3 3 3 3 3 3 3 4 4 4 4 5 5 5 6 6 5 5 5 5 6 6 6 6 7 6 7 6 6 6 6 6 6 6 5 5 6 5 5 5 5 5 5 5 5 5 6
5 5 5 5 5 5 5 5 4 4 5 5 4 4 4 5 5 5 4 4 4 3 3 3 3 3 3 3 3 3 3 3 3 3 4 4 4 4 4 5 5 5 5 6 6 6 6 6 6 6 6 7 6 7 7 7 7 7 7 7 7 7 7 7 7 7 7 6 6 6 6 6 6 5
6 6 6 5 5 5 5 5 4 4 4 4 4 4 4 4 5 5 5 4 4 4 4 3 3 3 3 3 3 3 3 3 3 3 4 4 4 4 4 5 5 5 5 5 5 6 6 6 7 7 7 7 7 7 8 7 7 7 7 7 8 8 8 8 8 8 8 8 8 8 8 7 7 7
6 6 6 5 5 5 5 5 5 4 4 4 4 4 4 4 4 4 4 4 4 4 5 4 4 4 3 3 3 3 3 3 3 3 3 3 4 4 4 4 4 4 5 5 5 6 6 6 6 7 7 8 8 8 8 8 8 8 8 8 8 8 9 9 9 9 8 8 9 8 8 8 8 8
8 7 7 6 6 6 5 5 5 5 4 4 4 4 4 4 4 4 4 4 4 4 5 5 5 5 4 4 4 3 3 3 3 3 3 3 3 4 4 4 4 4 5 5 5 5 5 5 6 6 7 7 8 8 8 9 9 9 9 9 8 8 9 9 9 9 8 8 8 8 8 8 8 8
10 10 10 9 8 7 6 6 6 5 5 5 4 4 4 4 4 4 4 4 4 4 4 4 5 5 5 5 5 4 4 4 4 4 4 3 3 4 3 4 4 4 4 5 5 5 5 5 5 5 6 6 7 8 8 8 8 8 8 9 8 8 8 9 9 9 9 8 8 8 8 8 8 8
11 12 12 11 11 10 9 8 7 6 6 5 5 5 5 4 4 4 4 4 4 4 4 4 4 5 5 6 6 6 5 5 4 4 4 4 4 4 4 4 4 4 4 4 5 5 5 5 5 5 6 6 6 7 7 7 7 7 8 8 8 7 7 8 8 9 9 9 9 9 9 9 9 8
11 12 12 12 13 13 12 11 10 9 8 7 6 6 5 5 5 5 4 5 5 4 4 5 5 5 5 5 6 6 6 6 6 5 5 5 4 4 4 4 4 4 4 4 5 5 5 5 5 5 5 6 6 6 6 6 6 7 7 7 7 7 7 7 8 8 9 9 9 9 9 9 9 8
12 13 13 13 13 13 13 13 12 11 10 9 8 7 6 6 5 5 5 5 5 5 5 5 5 5 5 5 5 6 6 7 7 7 6 6 5 5 5 5 5 5 5 5 5 5 5 5 5 5 6 6 6 6 6 6 6 7 7 7 7 7 7 7 7 7 7 7 7 7 7 8 8 8
17 16 16 16 15 15 14 14 14 13 13 12 11 10 9 7 6 6 6 6 5 5 5 5 5 5 5 5 5 6 6 6 7 7 7 7 7 6 6 5 5 5 5 5 5 6 6 6 6 6 6 6 6 6 6 6 6 6 6 6 6 6 6 6 6 6 6 6 6 6 6 6 6 6
22 22 21 20 19 18 17 16 16 16 15 15 14 13 12 11 9 8 7 6 6 6 6 6 6 6 6 6 6 6 6 6 6 7 7 7 8 8 8 7 7 6 6 5 5 5 6 6 6 6 6 6 6 6 6 6 6 6 6 6 6 6 6 6 6 6 6 6 6 6 6 6 6 6
24 24 25 25 24 23 21 20 19 19 18 18 17 16 15 14 13 11 10 8 7 7 7 6 6 6 6 6 6 6 6 6 6 7 7 7 7 8 8 9 9 9 8 8 7 7 7 6 6 6 6 6 6 6 7 7 7 6 6 7 7 7 6 6 6 6 6 6 6 6 5 5 5 5
25 26 27 27 28 28 27 26 25 24 23 22 21 19 18 17 16 15 14 12 10 9 8 8 7 7 7 7 7 7 7 7 7 7 7 7 8 8 8 8 9 9 9 10 10 10 10 9 9 9 8 8 8 7 7 7 7 7 7 6 7 7 7 6 6 6 6 6 6 6 6 5 5 5
28 29 29 30 31 33 33 32 30 29 27 26 25 24 22 21 20 19 18 17 15 14 12 11 10 9 8 8 7 7 7 7 7 8 8 8 8 8 8 8 8 8 9 9 9 10 10 10 10 11 11 11 11 10 10 10 10 9 9 9 8 8 8 8 7 7 6 6 6 6 6 5 5 5
30 32 33 35 36 37 37 36 34 32 30 29 28 27 25 24 24 23 23 22 21 20 18 17 15 14 13 13 11 10 10 9 9 9 8 8 8 8 9 9 9 9 9 9 9 9 9 9 10 10 10 10 10 11 11 11 10 10 10 10 9 9 9 9 10 9 8 8 7 7 6 6 5 5
31 34 37 40 41 41 40 39 37 35 33 31 29 28 27 26 26 26 26 26 26 26 25 24 22 21 20 19 19 18 17 16 15 14 13 13 12 12 11 11 11 11 11 11 11 11 11 10 10 10 10 10 10 10 10 10 10 9 9 9 9 8 8 8 9 9 9 8 8 7 7 7 7 7
Wind_Speed
104 107 109 112 115 116 117 119 122 124 126 129 131 133 135 138 141 144 146 147 148 149 150 152 153 152 153 154 154 156 157 158 160 161 158 156 154 152 150 148 148 147 146 145 146 148 151 153 154 154 154 154 154 154 154 154 154 154 153 153 152 151 149 148 147 145 144 144 143 142 142 141 140 140
101 104 106 108 110 113 115 116 118 120 122 125 127 129 132 136 139 143 145 146 146 148 150 152 153 153 153 154 154 155 157 157 159 162 161 158 157 156 154 152 151 150 149 147 146 147 148 149 150 151 152 153 154 154 154 154 153 153 153 153 153 152 150 149 148 146 146 145 144 143 143 142 141 140
98 100 102 105 107 109 111 112 114 116 118 120 122 125 129 132 136 140 143 144 145 147 149 151 153 153 152 153 154 155 156 157 159 161 162 160 159 159 157 156 154 153 151 150 149 148 147 147 147 148 149 151 152 153 153 153 153 153 153 153 153 152 151 150 149 148 147 146 145 144 143 143 142 141
92 95 98 101 103 106 108 109 111 113 115 116 118 120 124 127 131 135 138 140 142 144 147 149 151 152 151 152 154 155 155 157 159 161 162 161 159 159 159 159 157 156 154 153 152 151 150 148 147 146 146 147 149 150 151 152 152 152 152 152 152 151 150 149 149 148 147 146 146 145 144 143 143 141
86 89 93 96 99 102 105 106 109 111 112 114 115 116 118 121 125 129 132 135 137 140 144 146 148 150 151 152 153 155 155 156 158 160 162 162 160 159 159 159 159 158 157 156 155 154 153 151 149 147 146 145 146 147 148 149 150 150 151 151 151 150 150 149 148 148 147 146 146 145 144 143 143 142
83 85 87 90 94 97 99 102 105 107 110 111 112 112 113 116 119 123 126 130 132 134 138 141 143 146 149 150 152 154 154 155 157 158 160 161 161 160 159 159 159 159 159 158 158 157 156 154 152 150 148 146 145 145 145 145 146 147 148 149 149 149 149 148 148 147 146 146 145 144 144 143 143 142
79 81 84 86 88 91 93 96 99 102 105 107 108 109 110 112 114 117 121 124 127 129 131 136 138 141 145 148 149 151 153 154 155 157 158 159 160 160 159 158 158 158 159 159 160 160 159 158 155 153 151 149 147 145 145 144 144 144 145 146 146 147 147 147 147 146 146 146 145 144 143 143 142 142
74 78 81 83 85 86 88 90 93 96 98 101 103 105 108 109 111 113 116 118 122 124 126 131 134 137 141 144 146 148 150 152 154 155 156 157 159 159 158 158 157 157 158 159 160 161 161 161 159 156 154 152 150 148 147 146 145 144 144 143 143 143 143 144 144 145 145 145 145 144 143 142 142 142
68 72 76 79 81 84 86 88 89 91 93 95 98 100 103 106 107 109 112 113 115 118 121 125 130 133 136 140 143 145 147 149 151 153 154 155 157 157 157 157 157 157 157 158 159 160 161 162 161 159 157 155 154 152 150 149 147 146 145 144 143 142 141 141 141 142 142 142 143 143 142 142 142 141
61 65 69 72 76 79 83 85 87 89 90 91 93 95 98 101 103 106 108 109 110 112 114 119 125 128 131 135 138 141 143 145 148 150 151 152 154 155 156 155 156 156 157 157 158 159 160 161 161 160 159 158 157 155 154 152 150 149 148 146 145 144 142 141 140 140 140 140 140 140 140 141 141 140
55 59 62 66 69 73 77 80 83 86 88 89 90 92 94 96 98 101 103 105 106 107 109 113 118 123 127 130 133 136 139 141 143 145 147 149 150 152 154 155 155 155 156 156 156 157 158 159 160 160 160 160 159 158 157 155 153 152 151 150 149 147 145 144 142 141 140 139 138 138 138 138 138 138
50 53 56 60 63 67 70 74 77 81 84 86 88 90 92 93 94 95 97 99 101 102 105 108 113 118 122 125 128 130 133 135 137 140 143 145 146 148 151 153 154 154 155 154 154 155 156 158 159 159 159 159 159 159 158 157 155 154 154 153 152 151 149 147 145 144 142 141 139 138 138 137 137 136
44 47 50 53 57 60 64 67 71 74 78 81 84 88 90 91 92 93 93 94 95 96 99 103 107 112 115 118 121 124 127 129 131 134 138 140 142 145 147 150 152 153 153 153 153 153 154 156 158 158 159 159 159 159 158 157 157 156 156 156 155 154 153 151 149 147 145 144 142 141 140 139 138 137
41 42 44 47 50 53 57 61 64 68 71 75 78 82 85 88 90 91 91 90 90 91 93 97 100 104 106 108 112 116 120 124 126 129 132 135 137 140 143 146 148 150 151 151 152 152 152 154 155 157 158 158 159 159 158 158 157 157 158 158 158 157 156 155 153 151 149 148 146 145 143 142 140 139
39 40 41 43 45 47 50 54 57 61 65 68 72 76 79 83 86 88 89 89 88 88 89 91 93 96 98 100 104 108 113 118 121 124 127 130 132 134 137 140 144 146 148 150 151 151 151 152 153 155 156 157 158 158 158 158 158 158 158 158 159 159 158 157 156 155 153 152 150 149 147 146 144 143
37 38 39 41 42 44 46 48 51 55 58 62 66 69 73 77 80 83 85 86 87 87 87 87 88 90 92 95 98 102 108 113 117 120 123 125 127 129 131 135 139 143 146 148 149 150 150 150 151 152 153 155 155 156 157 157 158 158 158 158 158 158 159 158 158 157 156 155 154 153 151 150 149 147
35 36 37 38 40 41 43 45 47 50 53 56 60 63 67 70 74 77 80 83 84 85 85 85 85 86 88 91 95 99 104 109 113 116 118 121 123 125 127 130 134 138 142 144 147 148 149 149 149 150 150 152 153 154 154 155 156 157 158 158 159 158 158 158 158 157 157 157 156 156 154 153 152 151
33 34 35 36 37 39 40 42 44 46 48 51 54 57 60 64 67 71 75 78 81 83 83 83 83 83 85 88 91 95 100 104 108 111 114 116 119 122 124 126 129 132 136 140 143 145 146 147 147 148 148 149 150 151 151 152 153 154 155 157 157 158 157 157 156 156 156 156 156 156 156 156 155 154
32 32 33 34 35 37 38 39 41 43 45 47 49 52 55 58 62 65 69 73 76 78 80 81 81 81 82 84 87 91 95 99 102 105 109 112 115 118 121 123 125 128 131 135 138 141 142 144 145 145 146 146 147 148 148 149 149 151 152 154 155 155 155 156 156 155 155 155 155 155 155 156 156 155
30 31 32 33 34 35 36 37 39 40 42 44 46 48 50 53 56 60 64 67 71 74 76 78 79 80 81 82 83 86 90 94 96 99 103 106 110 114 117 120 122 125 128 131 134 136 138 140 141 142 143 144 144 145 145 145 146 147 149 151 152 153 153 153 154 154 154 154 154 154 154 154 155 155
29 30 31 32 33 34 35 36 37 38 40 42 44 46 48 50 52 55 58 62 65 69 72 74 77 78 79 80 81 82 85 88 90 94 98 101 105 109 112 115 119 121 124 126 129 131 134 136 137 139 140 141 142 142 143 143 143 144 145 146 149 150 151 151 151 152 153 152 153 153 153 153 154 154
28 29 31 32 32 33 34 35 36 37 38 40 41 43 45 47 49 51 53 57 60 64 67 70 73 75 77 78 78 79 81 83 85 89 93 97 100 103 106 110 114 117 120 122 124 127 129 132 134 136 137 138 139 140 140 140 141 141 142 143 144 146 147 148 148 150 151 151 151 151 152 152 153 154
25 27 28 30 31 32 33 34 35 36 37 39 40 42 43 44 46 48 50 53 56 59 63 66 69 71 73 74 75 77 79 80 82 85 88 91 94 97 101 105 109 113 116 118 120 123 125 127 129 131 133 135 136 137 137 138 137 138 138 140 141 143 144 145 145 147 148 149 150 149 149 150 151 152
22 24 25 27 28 30 31 32 34 35 36 38 39 40 41 42 44 46 48 50 53 55 58 61 64 67 69 71 72 74 77 79 80 82 83 86 89 92 97 101 104 108 111 114 117 119 121 123 125 126 128 131 133 133 134 134 134 134 134 136 137 138 139 140 141 142 144 145 146 147 147 148 149 149
20 21 22 24 26 27 29 30 32 33 35 36 37 38 39 41 43 45 47 48 51 53 55 58 60 63 65 67 69 71 74 76 78 79 80 81 84 88 92 96 100 103 107 110 112 114 116 118 121 122 124 127 128 129 130 130 131 131 131 131 133 134 135 136 136 137 139 140 142 143 145 145 146 146
18 20 21 22 23 25 26 28 29 31 32 34 35 36 37 39 41 43 44 46 49 51 53 55 57 60 62 64 65 68 70 72 74 75 76 78 81 84 88 92 95 98 101 104 106 107 108 111 115 118 120 122 123 125 126 127 128 128 127 128 129 130 131 132 133 133 134 136 137 139 140 142 143 144
17 18 19 21 22 23 24 26 27 28 30 31 32 33 35 36 39 41 43 44 47 48 50 53 55 57 59 61 62 64 66 68 69 70 72 75 78 82 85 88 90 92 95 98 100 100 101 104 108 112 114 116 117 119 122 123 124 124 124 125 125 127 128 129 130 131 131 132 133 135 136 138 139 140
15 16 17 19 20 21 23 24 25 26 27 28 30 31 32 34 36 38 41 42 44 46 48 50 52 54 56 58 59 61 62 64 66 67 69 71 75 78 81 84 86 88 90 93 95 95 94 97 101 105 108 109 110 113 115 117 119 120 120 121 121 123 124 125 126 127 127 128 129 130 131 133 134 135
13 14 15 17 18 19 21 22 23 24 25 26 27 28 29 31 33 36 38 40 42 44 46 47 49 50 52 54 56 58 60 62 63 65 67 69 72 75 78 80 83 86 88 90 90 89 90 92 95 98 100 102 103 105 108 110 113 115 116 116 117 118 119 120 121 122 122 123 124 125 125 127 128 130
12 13 14 15 16 18 19 20 21 22 23 25 26 26 27 28 31 33 35 37 39 41 43 44 46 47 49 51 53 55 57 59 61 63 65 67 69 72 74 77 79 82 84 85 86 86 87 89 92 94 95 96 98 99 101 104 106 108 109 110 111 112 113 114 116 117 117 118 119 120 120 121 122 123
11 11 12 13 14 15 17 18 19 20 21 22 24 24 25 26 28 31 33 34 36 38 40 41 42 44 46 48 50 52 54 56 58 60 62 63 66 68 71 73 76 78 80 81 82 83 84 86 89 90 91 93 94 95 97 99 101 102 103 103 104 105 107 108 110 111 112 113 114 115 116 117 118 118
10 10 11 11 12 13 15 16 17 18 19 20 21 22 23 24 25 28 30 31 33 34 36 37 39 41 43 46 48 50 52 53 55 57 59 60 62 65 67 70 73 75 76 78 80 81 82 84 85 86 88 89 91 92 94 96 97 97 98 99 100 101 103 104 106 107 108 109 110 111 112 113 114 114
10 10 10 10 10 11 12 13 14 15 16 17 18 20 21 22 23 25 27 29 30 31 32 33 35 37 40 42 45 47 50 51 53 55 57 58 59 61 64 66 69 71 73 75 76 78 80 81 82 83 84 86 88 89 91 92 94 94 95 96 97 98 99 101 103 104 105 106 107 107 108 109 110 111
11 11 11 11 11 10 11 12 13 13 14 14 15 16 18 19 21 22 24 26 28 29 29 30 31 33 35 38 41 44 45 48 50 52 54 56 57 59 61 62 64 66 68 71 72 74 76 78 79 80 81 83 84 86 87 89 91 92 93 94 95 95 96 98 100 101 102 103 103 103 104 105 106 107
12 12 12 12 12 12 11 11 12 13 13 14 14 14 15 16 18 19 21 23 25 26 27 28 28 30 31 34 37 39 41 43 46 48 50 53 55 57 58 59 61 63 64 66 68 70 72 73 75 76 78 79 81 83 85 86 88 89 90 91 92 92 93 95 97 98 99 99 99 100 101 102 103 105
12 12 12 12 12 12 12 12 12 12 13 13 13 13 14 14 15 17 18 20 22 24 25 26 26 27 28 30 33 35 37 39 42 44 46 48 50 52 54 56 58 60 62 63 65 66 68 69 71 72 74 76 77 80 82 83 85 86 87 89 90 90 90 92 93 95 96 97 97 98 99 100 101 103
13 12 12 12 12 12 12 12 12 12 12 12 12 12 12 13 13 15 16 17 19 21 22 24 25 25 26 27 29 31 34 36 39 41 43 45 46 48 50 52 54 56 58 60 61 63 65 66 68 69 70 72 74 76 78 79 80 82 84 86 87 87 88 89 91 92 93 95 96 97 98 99 100 101
13 13 12 12 12 12 11 11 12 12 12 12 12 11 11 11 12 12 14 15 17 18 20 21 23 24 25 26 27 28 30 33 35 37 39 42 43 45 47 48 50 52 54 55 57 59 61 63 64 65 67 68 70 72 74 74 75 78 80 82 83 85 86 87 88 90 91 92 93 95 96 97 98 99
13 13 13 12 12 11 11 11 11 11 11 11 11 11 11 10 10 11 12 13 14 16 17 19 21 22 23 24 25 27 28 30 31 33 35 38 40 42 44 46 48 49 51 52 54 56 57 59 60 62 63 65 67 69 70 71 72 74 76 78 80 81 82 83 84 85 87 88 90 91 91 92 94 96
13 13 12 12 12 11 11 11 11 11 10 10 10 10 10 10 10 10 10 11 12 13 15 16 18 20 21 23 24 25 27 28 29 31 32 34 36 38 40 42 44 46 48 49 51 52 54 55 57 58 60 62 63 64 66 67 69 71 72 73 75 76 78 78 79 81 83 84 86 87 88 89 91 93
13 13 12 12 12 12 12 11 11 11 10 10 10 10 10 9 9 9 9 10 11 11 12 14 15 17 18 20 22 23 25 26 28 29 30 32 33 35 36 38 40 42 43 45 47 48 50 51 53 55 56 58 59 60 62 64 66 67 68 69 70 72 74 75 76 77 79 80 82 83 85 87 88 90
13 13 13 12 12 12 12 12 11 11 11 11 11 11 10 10 10 9 9 9 10 11 11 12 13 14 16 17 19 20 22 24 25 27 28 30 31 32 34 35 36 38 40 41 42 44 45 47 49 50 52 54 55 57 59 60 62 63 64 65 67 69 70 72 73 74 75 76 78 80 82 84 85 85
14 13 13 12 12 12 12 12 12 12 12 12 12 12 11 11 10 10 9 9 9 10 11 11 12 13 14 15 16 18 19 21 23 24 26 28 29 30 32 33 34 36 37 38 39 41 42 44 45 46 48 50 51 53 55 56 58 59 61 63 65 66 67 69 71 72 72 74 76 78 80 81 81 82
16 15 14 13 13 12 12 13 13 13 13 13 13 13 13 12 12 11 11 10 10 10 10 11 11 12 12 13 14 15 16 18 19 21 23 24 26 28 29 30 32 33 34 35 37 38 40 41 42 44 45 47 48 50 52 54 55 57 59 61 63 64 64 65 67 69 71 72 75 77 78 78 78 79
17 16 16 15 14 14 13 13 13 13 13 13 13 13 13 13 13 12 12 12 11 11 11 11 11 12 12 13 13 14 15 16 17 18 20 21 22 24 25 27 28 29 31 32 34 35 37 38 40 42 43 45 46 48 50 52 54 56 57 59 61 63 63 63 65 67 68 71 73 74 75 75 76 78
Wind_Direction
239 240 240 240 241 241 240 239 239 238 237 236 235 234 233 233 233 233 233 233 233 234 233 233 232 232 232 232 232 233 234 235 236 237 236 236 236 236 236 237 238 239 238 238 238 239 239 240 240 240 241 241 242 242 243 243 243 244 245 245 245 245 245 246 247 247 248 249 249 250 250 251 252 252
238 238 238 239 239 240 240 240 240 239 238 237 236 235 234 233 233 233 233 232 232 233 234 234 233 232 232 232 232 232 233 234 235 237 237 236 236 236 236 236 237 238 239 238 238 238 239 239 240 240 240 241 242 242 242 243 243 244 244 245 245 246 246 246 247 247 248 249 249 250 250 251 251 252
238 238 238 238 238 239 239 240 240 240 240 238 237 236 235 234 234 234 234 233 233 233 233 233 234 233 233 233 233 232 232 232 233 235 236 236 235 236 236 236 236 237 238 239 239 239 239 239 239 240 240 241 241 242 242 243 243 244 244 245 245 246 246 246 247 247 248 249 249 250 251 251 252 252
238 238 238 238 238 238 238 238 239 240 240 240 238 237 236 235 235 235 235 234 234 233 233 233 234 234 233 233 233 233 232 232 232 233 235 235 235 235 235 236 236 236 237 238 239 239 239 239 239 239 240 240 241 241 242 243 243 244 244 245 245 246 246 246 247 247 248 248 249 250 251 251 252 252
238 238 238 238 238 238 238 237 237 238 239 239 239 238 237 236 236 236 236 236 235 234 234 234 234 235 234 233 233 234 233 233 233 233 234 235 235 235 235 235 236 236 236 237 238 239 240 240 240 240 240 240 240 241 242 242 243 243 244 244 245 246 246 246 247 247 248 248 249 249 250 251 252 252
238 238 237 237 237 238 238 238 238 238 238 239 239 239 238 237 236 236 236 236 236 235 235 235 235 235 235 235 234 234 234 234 234 234 234 235 235 235 235 235 235 236 236 237 238 238 239 240 240 240 240 240 241 241 242 242 243 243 244 244 245 245 246 246 246 247 247 248 248 249 250 250 251 252
239 239 238 237 237 237 237 237 237 238 238 238 239 239 239 238 237 236 235 235 235 235 235 235 235 235 235 235 235 234 234 234 234 234 235 235 236 236 236 235 235 235 236 236 237 238 239 239 239 240 240 241 241 241 242 242 242 243 243 244 244 245 245 246 246 247 247 247 248 248 249 250 250 251
237 238 238 238 238 237 237 237 237 237 237 237 238 238 238 238 238 237 236 235 235 234 234 235 235 235 235 235 235 235 235 235 234 234 235 235 236 237 237 236 236 235 235 236 236 237 238 239 239 239 240 240 241 241 242 242 242 243 243 244 244 245 245 245 246 246 247 247 247 248 248 249 249 250
236 236 237 237 237 237 237 237 237 237 236 237 237 237 237 238 238 238 238 237 236 235 234 234 235 235 235 235 235 235 235 235 235 235 235 235 236 237 237 237 237 236 236 236 236 237 238 239 239 239 239 240 240 240 241 242 242 243 243 244 244 244 245 245 245 246 246 247 247 247 248 248 248 249
236 236 236 236 236 236 237 237 237 236 236 236 236 236 236 237 237 237 237 237 236 235 234 234 235 235 235 235 235 235 235 235 235 235 235 235 236 237 238 238 238 237 237 237 237 237 238 238 239 239 239 240 240 240 240 241 242 243 243 244 244 244 244 245 245 245 246 246 246 247 247 248 248 248
236 236 235 235 235 235 235 236 237 237 237 236 236 236 236 236 236 237 237 237 237 236 235 234 234 234 235 235 235 235 235 235 235 235 236 235 235 236 237 238 238 238 238 237 237 237 238 238 239 239 240 240 240 240 240 240 241 242 243 244 244 244 244 244 245 245 246 246 246 247 247 247 248 248
238 237 236 235 235 234 234 235 235 236 236 236 236 236 236 236 236 236 236 237 236 236 235 235 234 234 234 234 235 236 236 236 235 235 235 235 235 235 236 238 238 238 239 238 238 238 238 238 239 239 240 240 240 240 240 240 240 241 242 243 244 244 244 245 245 245 245 246 246 246 247 247 248 248
239 238 238 237 236 235 235 235 234 234 235 235 235 236 236 236 236 236 236 236 236 236 235 235 235 235 235 234 235 236 236 237 236 236 236 236 235 235 235 237 238 239 239 239 239 239 239 239 239 240 240 240 241 241 241 241 241 241 241 242 243 244 244 244 245 245 245 245 246 246 246 247 247 248
241 239 238 238 237 237 237 236 235 235 235 234 234 235 235 235 236 236 236 235 235 235 235 235 235 236 236 235 235 235 236 237 237 236 236 236 236 235 235 236 237 238 239 239 239 239 239 239 239 240 240 240 240 241 241 241 241 241 241 241 242 243 244 244 245 245 245 245 245 246 246 246 247 247
241 240 238 237 237 237 237 236 236 236 235 235 235 234 234 234 235 235 235 235 235 235 234 234 235 235 235 235 235 235 235 236 236 236 236 236 236 236 235 235 236 237 238 239 239 240 240 240 240 240 240 240 241 241 241 241 241 241 241 241 242 242 243 243 244 244 245 245 245 246 246 246 246 247
242 241 240 238 237 236 236 236 236 236 236 236 235 235 235 234 234 234 234 234 234 234 234 234 233 233 233 233 233 233 233 234 234 235 235 236 236 236 235 235 235 236 237 238 239 239 240 240 240 240 240 241 241 241 241 242 242 242 242 242 242 242 242 243 243 244 244 245 245 246 246 246 247 247
244 243 241 240 239 237 236 236 235 235 235 235 235 235 235 235 234 234 233 233 233 233 233 233 233 233 232 232 231 231 231 232 232 233 233 234 235 235 235 235 235 235 236 237 238 239 239 240 240 240 240 241 241 241 242 242 242 242 243 243 243 243 243 243 243 244 244 244 245 246 246 246 247 247
245 244 243 242 241 239 238 237 236 236 235 235 235 235 235 235 235 234 234 233 232 232 232 232 233 233 232 232 231 231 231 231 232 232 232 233 233 234 235 235 234 235 236 237 238 239 239 240 240 241 241 241 241 242 242 242 242 243 243 244 244 244 245 245 244 244 244 245 245 245 246 246 247 247
246 245 244 243 242 241 239 238 236 236 235 235 235 235 235 234 234 233 233 233 232 232 231 231 232 233 233 232 232 231 231 231 232 232 232 232 233 233 234 234 235 235 235 236 237 238 239 240 240 241 241 242 242 242 242 242 243 243 244 244 245 245 245 246 246 246 245 245 245 245 246 247 247 248
246 245 245 244 243 242 240 239 238 236 236 235 235 235 234 234 234 233 233 233 232 232 232 231 231 232 232 232 232 232 232 232 232 232 232 233 233 233 234 234 235 235 235 236 237 238 239 240 240 241 242 242 243 243 243 243 243 243 243 244 245 245 246 246 246 247 247 247 246 246 246 247 247 248
246 246 246 245 244 243 242 240 239 238 237 236 235 235 234 234 233 233 233 232 232 232 232 232 232 232 233 232 232 232 233 233 232 232 233 233 233 233 234 234 235 236 236 236 237 237 238 239 240 241 242 242 243 243 244 244 244 244 244 244 245 246 246 246 247 247 248 248 248 247 247 247 247 247
248 248 247 247 246 245 244 242 241 239 238 237 236 235 235 234 234 233 233 233 232 232 233 233 233 234 234 234 233 233 233 233 232 232 232 233 233 233 234 235 235 236 237 237 237 238 238 239 240 240 241 242 243 243 244 244 244 244 245 245 245 246 246 247 247 247 248 248 248 248 248 248 248 248
253 251 251 250 249 249 247 246 244 242 240 239 237 236 235 234 234 233 233 233 232 233 233 233 234 234 235 235 235 234 234 233 232 232 232 232 233 233 233 234 235 236 236 237 238 238 238 239 240 240 241 242 243 243 244 244 245 245 245 245 245 246 246 246 247 247 248 248 249 249 249 249 249 249
256 254 253 252 251 251 250 249 247 246 244 243 241 239 237 235 234 233 233 233 233 233 233 233 234 234 235 235 235 235 235 234 233 232 231 232 232 233 233 234 234 235 236 236 237 237 238 239 240 240 241 242 243 243 244 245 245 245 245 246 246 246 247 247 247 247 247 248 249 249 249 250 250 250
257 256 254 253 252 251 251 250 249 248 247 246 244 242 241 239 237 235 234 233 232 233 233 233 234 234 235 235 234 234 234 235 234 233 232 232 232 232 233 234 234 235 236 236 237 237 237 238 239 240 241 241 242 243 244 245 245 246 246 246 246 247 247 248 248 248 248 248 248 249 249 250 250 250
260 258 257 255 253 252 251 251 250 249 248 248 246 245 243 242 241 239 237 235 234 232 232 233 233 234 234 235 235 235 235 235 235 234 233 233 232 232 233 234 234 235 236 237 238 238 237 238 239 240 241 241 242 243 244 245 245 246 246 246 247 247 248 248 248 248 248 248 248 249 249 250 250 250
262 260 259 257 255 254 253 251 250 250 249 249 248 247 245 243 242 242 240 239 237 236 234 233 233 233 234 234 235 235 236 236 236 235 235 234 234 234 234 234 235 236 236 238 239 239 238 238 239 240 241 242 242 243 244 244 245 246 246 246 247 247 247 248 248 248 248 248 248 248 249 249 250 250
268 264 262 260 258 257 255 254 252 251 250 249 249 248 246 244 243 243 242 241 240 239 237 236 235 234 234 234 235 235 236 236 236 236 235 235 235 236 236 236 236 237 237 238 239 239 238 238 239 240 241 242 242 243 244 245 246 246 247 247 247 247 247 248 248 248 248 249 249 249 249 249 249 250
277 272 267 264 261 259 257 256 255 253 252 250 248 247 246 245 244 243 242 241 240 240 239 238 237 236 235 235 235 235 235 235 235 235 235 235 235 235 236 236 237 238 238 239 240 239 239 239 240 241 241 242 242 243 243 244 245 246 247 247 247 248 248 249 249 249 249 249 250 250 250 249 249 250
291 285 280 274 268 264 260 258 256 255 254 253 251 247 246 245 244 244 243 241 241 240 240 238 237 236 236 235 235 235 235 235 235 235 235 235 235 235 236 237 237 238 239 240 241 241 240 240 240 241 241 242 242 243 244 244 245 246 246 247 248 248 249 249 250 250 251 251 251 251 251 251 251 250
303 298 292 287 282 275 269 264 260 257 255 254 253 250 247 245 245 245 244 242 241 240 240 239 238 236 235 235 234 234 234 235 235 235 235 235 235 235 236 237 238 238 239 240 241 241 241 241 241 241 241 242 242 243 243 244 245 246 246 247 248 248 249 250 250 251 251 252 252 252 252 252 252 252
307 303 298 293 289 284 280 274 268 262 257 254 253 252 250 248 247 246 246 245 243 241 240 239 238 237 236 235 234 233 233 233 233 234 234 234 234 234 235 236 237 238 239 239 240 241 241 242 242 242 242 243 243 244 244 245 245 246 246 247 247 248 248 249 249 250 250 251 251 251 252 252 252 252
317 313 309 303 298 293 290 285 280 273 265 258 254 252 252 250 248 247 247 246 245 243 241 239 238 238 237 236 236 235 234 233 233 233 233 233 233 233 234 234 236 237 238 239 239 240 241 241 242 242 242 243 244 244 245 245 246 246 247 247 247 247 248 248 249 249 249 249 250 250 251 251 251 252
326 324 322 318 313 307 303 298 294 289 282 272 262 256 252 251 250 249 248 247 246 245 242 240 238 237 236 236 236 236 236 236 235 234 234 233 233 233 233 233 234 235 237 238 239 239 240 241 241 242 242 242 243 243 244 245 245 246 246 247 247 246 247 247 248 249 249 249 249 250 250 251 251 251
325 325 324 322 320 317 314 310 307 302 297 290 280 270 261 255 252 250 248 247 247 245 244 242 239 237 236 235 236 236 235 236 236 237 236 235 235 234 234 233 234 234 235 236 237 238 239 240 241 241 241 242 242 243 243 244 244 245 245 246 246 246 246 246 247 248 249 249 250 250 250 251 251 251
321 321 319 318 318 318 317 315 313 308 303 298 293 286 277 268 260 255 251 248 246 245 243 242 240 238 236 235 235 235 234 233 234 235 236 236 236 236 236 235 235 235 235 235 236 237 238 239 240 240 240 241 241 242 242 243 243 244 245 245 246 246 246 246 247 248 248 249 249 250 250 250 250 251
316 316 314 313 312 313 313 313 311 309 306 302 298 294 288 281 272 264 258 252 248 245 243 241 240 238 236 235 235 235 234 233 232 232 233 234 235 235 236 236 236 236 236 236 236 237 238 238 239 240 240 240 241 241 242 242 243 244 245 245 246 247 247 247 248 248 248 249 249 249 249 250 250 251
314 313 310 308 307 306 305 306 305 305 304 302 300 297 292 287 280 271 265 258 252 247 244 241 239 237 235 234 234 234 234 234 233 232 232 232 233 233 234 234 235 236 236 236 237 237 238 239 240 240 241 241 242 242 242 243 243 244 244 245 246 246 247 247 247 248 248 248 249 249 249 250 250 251
312 310 309 307 305 302 301 300 300 300 299 298 297 296 293 288 283 276 270 263 257 251 246 243 240 238 236 234 232 232 232 233 233 233 232 232 232 232 233 233 234 234 235 235 236 236 237 238 239 240 241 241 242 243 243 243 243 244 244 245 246 246 247 247 248 248 249 249 250 250 250 250 251 251
308 308 307 306 305 304 302 299 298 297 297 295 292 289 286 282 278 272 266 261 256 252 248 244 241 239 237 235 233 231 231 231 232 232 232 232 232 232 233 233 234 235 235 236 236 237 238 238 239 240 240 241 242 243 244 245 245 245 245 246 247 248 248 248 248 249 249 250 250 250 250 250 250 250
305 306 306 306 306 305 304 302 300 298 296 294 290 285 280 275 270 265 259 253 250 246 244 241 239 238 237 235 233 232 231 231 231 232 232 233 233 233 233 234 234 235 236 236 237 238 238 239 240 241 241 242 243 244 244 245 246 247 247 247 248 249 249 249 249 249 250 250 251 251 251 250 250 250
302 303 304 305 307 308 307 306 304 303 300 297 293 288 283 277 270 264 259 252 246 243 240 238 235 233 233 232 232 231 230 230 230 231 231 232 233 234 234 235 235 236 237 237 238 239 240 240 241 242 243 243 244 245 245 246 247 248 248 248 248 249 250 251 251 250 251 251 251 252 252 252 251 252
302 301 302 303 304 306 307 307 306 305 304 302 299 295 290 286 280 273 267 259 251 246 242 241 238 235 232 231 230 230 229 229 229 229 230 231 231 232 233 234 235 236 237 238 239 240 241 242 243 243 244 245 246 247 247 248 248 249 249 249 249 249 250 251 252 252 252 252 252 252 252 252 252 252
302 301 301 301 302 302 303 304 304 304 303 301 299 297 295 291 287 283 277 271 263 256 249 244 242 241 239 237 235 233 232 231 231 230 230 231 232 232 233 234 235 236 237 238 239 240 241 242 243 244 245 246 247 248 249 249 250 250 250 251 251 250 250 251 252 253 253 253 253 253 254 254 254 254
300 300 299 299 300 300 300 300 300 300 299 298 296 294 293 291 288 284 280 277 273 268 261 254 248 244 243 241 239 238 236 235 234 234 234 234 234 234 235 236 236 237 238 239 239 240 241 242 243 244 245 246 247 248 249 250 250 250 251 251 252 252 251 251 252 253 255 255 255 255 255 255 255 255